Location: Rounton
(54.4000°N, 1.3500°W)
Time: 06:26:59
(UTC+01:00)

Tiros 1 despin weight - Pass Details

Date: 06 March 2024
Orbit: 579 x 623 km, 48.2° (Epoch: 16 April)

Event Time Altitude Azimuth Distance (km) Brightness Sun altitude
Rises 05:46:08 0° 192° (SSW) 2,832 ? -8.9°
Reaches altitude 10° 05:50:28 10° 152° (SSE) 1,921 ? -8.2°
Maximum altitude 05:51:15 10° 142° (SE) 1,892 ? -8.1°
Drops below altitude 10° 05:52:02 10° 132° (SE) 1,918 ? -8.0°
Sets 05:56:19 0° 91° (E) 2,811 ? -7.4°
